Location: Braunsdorf
(50.7357°N, 11.9136°E)
Time: 02:47:44
(UTC+00:00)

Cosmos 1000 Rocket - Pass Details

Date: 17 February 2020
Orbit: 954 x 992 km, 82.9° (Epoch: 03 April)

Event Time Altitude Azimuth Distance (km) Brightness Sun altitude
Rises 05:06:28 0° 193° (SSW) 3,627 7.4 -12.5°
Reaches altitude 10° 05:08:57 10° 196° (SSW) 2,688 6.7 -12.1°
Maximum altitude 05:15:06 75° 281° (W) 1,006 4.4 -11.2°
Drops below altitude 10° 05:21:22 10° 7° (N) 2,731 6.9 -10.2°
Sets 05:23:55 0° 10° (N) 3,688 7.6 -9.8°
